Location: Napier
(39.4830°S, 176.9170°E)
Time: 03:00:48
(UTC+12:00)

CENTAUR R/B - Pass Details

Date: 15 August 2020
Orbit: 754 x 1434 km, 63.5° (Epoch: 17 September)

Event Time Altitude Azimuth Distance (km) Brightness Sun altitude
Rises 18:07:25 0° 220° (SW) 3,480 5.8 -7.0°
Reaches altitude 10° 18:10:07 10° 225° (SW) 2,459 5.1 -7.5°
Maximum altitude 18:15:21 44° 296° (WNW) 1,078 3.4 -8.5°
Drops below altitude 10° 18:20:12 10° 7° (N) 2,280 4.5 -9.4°
Sets 18:22:37 0° 13° (NNE) 3,199 5.2 -9.9°
